Regional Weather Roundup
Issued by NWS

Home | Current Version | Previous Version | Graphics & Text | Print | Product List | Glossary Off
Versions: 1 2 3 4 5 6 7 8 9 10 11 12 13 14 15 16 17 18 19 20 21 22 23 24 25 26 27 28 29 30 31 32 33 34 35 36 37 38 39 40 41 42 43 44 45 46 47 48 49 50

295
ASUS45 KBOU 310707
RWRCO

WEATHER ROUNDUP FOR COLORADO
NATIONAL WEATHER SERVICE DENVER/BOULDER CO
100 AM MDT SUN JUL 31 2016

NOTE: "FAIR" INDICATES FEW OR NO CLOUDS BELOW 12000 FEET WITH NO
SIGNIFICANT WEATHER AND/OR OBSTRUCTIONS TO VISIBILITY.

COZ001>005-013-030-031-310800-
...NORTHWEST COLORADO...

CITY           SKY/WX    TMP DP  RH WIND       PRES   REMARKS
CRAIG          FAIR      59  45  59 CALM      30.10S
HAYDEN         FAIR      63  41  45 E9        30.12F
MEEKER         FAIR      62  43  49 E8        30.12S
MOUNT WERNER   NOT AVBL
STEAMBOAT SPGS FAIR      59  41  52 CALM      30.16R
WALDEN         FAIR      46  37  71 E6        30.25F
$$

COZ006>008-011-310800-
...WEST CENTRAL VALLEYS...

CITY           SKY/WX    TMP DP  RH WIND       PRES   REMARKS
GRAND JUNCTION FAIR      79  41  25 NE8       29.98R
MONTROSE       MOCLDY    73  42  32 SE6       30.09R
EAGLE          FAIR      64  41  42 CALM      30.16R
RIFLE          FAIR      68  38  33 S7        30.04R
DELTA          NOT AVBL
NUCLA          NOT AVBL
$$

COZ017>023-064>068-310800-
...SOUTHWEST COLORADO...

CITY           SKY/WX    TMP DP  RH WIND       PRES   REMARKS
DURANGO        CLOUDY    59  46  62 CALM      30.24R
CORTEZ         LGT RAIN  65  57  75 S12       30.19R
PAGOSA SPRINGS MOCLDY    58  41  53 CALM      30.32S
TELLURIDE      CLOUDY    58  45  61 CALM      30.40R
WOLF CREEK PAS MOCLDY    48  36  61 SW15G22   30.64S
$$

COZ009-010-012-014-032>034-037-058>063-310800-
...CENTRAL COLORADO...

CITY           SKY/WX    TMP DP  RH WIND       PRES   REMARKS
ASPEN          FAIR      56  41  57 SW5       30.24R
BUENA VISTA    FAIR      58  48  67 CALM      30.30R
COPPER MTN     FAIR      54  32  43 W6        30.59S
BERTHOUD PASS  NOT AVBL
COTTONWOOD PAS MOCLDY    61  37  41 CALM      30.43S
GUNNISON       FAIR      54  37  54 CALM      30.30R
KREMMLING      MOCLDY    59  36  41 E6        30.22S
LEADVILLE      FAIR      49  35  58 E5        30.42S
MONARCH PASS   FAIR      50  34  53 MISG      30.69F
SALIDA         FAIR      61  47  59 CALM      30.33S
SUNLIGHT       FAIR      61  32  33 MISG      30.50S
WILKERSON PASS FAIR      52  34  50 SW7       30.55S
$$

COZ069>075-310800-
...SAN LUIS VALLEY/SANGRE DE CRISTO MOUNTAINS...

CITY           SKY/WX    TMP DP  RH WIND       PRES   REMARKS
ALAMOSA          N/A    N/A N/A N/A MISG      30.26F
LA VETA PASS   FAIR      52  39  62 S9G18     30.44F
SAGUACHE       FAIR      52  41  66 CALM      30.32S
$$

COZ035-036-038>040-310800-
...NORTHERN COLORADO FRONT RANGE...

CITY           SKY/WX    TMP DP  RH WIND       PRES   REMARKS
DENVER INTL AP FAIR      70  48  45 SW6       30.00S
DMNS CITY PARK   N/A     70  49  47 S3G9      30.00S
AURORA         NOT AVBL
FRONT RANGE AP NOT AVBL
ERIE MUNI ARPT FAIR      65  54  65 CALM      29.99S
BOULDER MUN AP FAIR      73  54  49 NW3       29.99F
CENTENNIAL     FAIR      71  43  36 SW9       30.04F
BROOMFIELD     FAIR      73  50  43 S3        30.03S
LONGMONT       NOT AVBL
$$

COZ041-046-047-076>085-087-088-310800-
...PIKES PEAK/PALMER DIVIDE AND SOUTHERN FOOTHILLS...

CITY           SKY/WX    TMP DP  RH WIND       PRES   REMARKS
COLO. SPRINGS  FAIR      66  47  50 NE13      30.11F
A. F. ACADEMY  FAIR      58  43  58 N8        30.13F
SCHRIEVER AFB  NOT AVBL
ELLICOTT       NOT AVBL
FALCON         FAIR      60  46  59 CALM      30.17S
FORT CARSON    NOT AVBL
LIMON          FAIR      69  47  45 SW14      30.02F
MONUMENT HILL  FAIR      61  39  44 SW9       30.17S
TRINIDAD       NOT AVBL
$$

COZ042>045-048>051-090-091-310800-
...NORTHEAST COLORADO...

CITY           SKY/WX    TMP DP  RH WIND       PRES   REMARKS
GREELEY ARPT   FAIR      66  61  82 NE5       29.96F
AKRON          FAIR      63  59  87 E7        29.96R
BURLINGTON     FAIR      68  63  84 W8        29.95R
WRAY           NOT AVBL
STERLING       NOT AVBL
HOLYOKE        NOT AVBL
FORT MORGAN    NOT AVBL
$$

COZ086-089-092>099-310800-
...SOUTHEAST COLORADO...

CITY           SKY/WX    TMP DP  RH WIND       PRES   REMARKS
PUEBLO         FAIR      70  52  52 SW3       29.99F
LA JUNTA       FAIR      72  52  49 SW16      29.98S
LAMAR          FAIR      69  55  60 W5        29.92S
SPRINGFIELD      N/A     74  51  44 SW13      29.98R
$$




USA.gov is the U.S. government's official web portal to all federal, state and local government web resources and services.